Content
SEND FEEDBACK

Daily
Averages
Monthly
Summary
United Kingdom

BALLYKELLY, NORTHERN IRELAND


Home > Europe > United Kingdom > Northern Ireland
Elevation: 13 feet     Latitude: 55 03N     Longitude: 007 00W

WEATHER
 
SELECT A DAY
Number of Records: 130,553;   Date Range: 7/1/96 - 8/29/14
 
SHARE

PRINT THIS DATA

[ ← Previous Day ]
WEATHER ALMANAC - APRIL 20, 2013
[ Next Day → ]
[ °C ]   °F
Weather ElementAverageHighLow
Temperature51.2 °F57.2 °F (3:50 pm)42.8 °F (6:20 am)
Dewpoint42.4 °F44.6 °F (9:50 am)39.2 °F (6:20 am)
Humidity72.8 %87 % (6:20 am)51 % (4:20 pm)
Barometer30.30 in30.36 in (6:20 am)30.21 in (3:50 pm)
Wind Speed16.8 mph21.9 mph (11:20 am)
Weather ElementAverage
Visibility6.2 mi
Wind DirectionSSW (209 °)

Weather ElementTotal
Precipitation---
Heating Degree Days15 (Base 65)
Averaged from 21 records on April 20, 2013
WEATHER CONDITIONS BREAKOUT
WIND DIRECTION BREAKOUT
WEATHER BY HOUR - APRIL 20, 2013
[ °C ]   °F
Local TimeTemperatureDewpointHumidityBarometerVisibilityWind DirectionWind SpeedGust SpeedPrecipitationEventsConditions
6:20 AM42.8 °F39.2 °F87 %30.36 in6.2 miSSW (200°)13.8 mphPartly Cloudy
6:50 AM42.8 °F39.2 °F87 %30.36 in6.2 miSSW (210°)11.5 mphPartly Cloudy
7:20 AM44.6 °F41.0 °F87 %30.36 in6.2 miWSW (240°)9.2 mphPartly Cloudy
7:50 AM46.4 °F41.0 °F81 %30.36 in6.2 miSouth (190°)16.1 mphPartly Cloudy
8:20 AM48.2 °F42.8 °F82 %30.36 in6.2 miSSW (200°)16.1 mphPartly Cloudy
8:50 AM48.2 °F42.8 °F82 %30.36 in6.2 miSSW (210°)16.1 mphPartly Cloudy
9:20 AM48.2 °F42.8 °F82 %30.33 in6.2 miSSW (200°)15.0 mphPartly Cloudy
9:50 AM50.0 °F44.6 °F82 %30.33 in6.2 miSSW (210°)15.0 mphPartly Cloudy
10:20 AM51.8 °F42.8 °F71 %30.33 in6.2 miSSW (210°)17.3 mphPartly Cloudy
10:50 AM51.8 °F42.8 °F71 %30.33 in6.2 miSSW (210°)18.4 mphScattered Clouds
11:20 AM53.6 °F42.8 °F67 %30.30 in6.2 miSSW (210°)21.9 mphScattered Clouds
11:50 AM53.6 °F42.8 °F67 %30.30 in6.2 miSSW (200°)19.6 mphMostly Cloudy
12:20 PM53.6 °F42.8 °F67 %30.30 in6.2 miSSW (200°)16.1 mphMostly Cloudy
12:50 PM55.4 °F42.8 °F63 %30.30 in6.2 miSW (220°)16.1 mphMostly Cloudy
1:20 PM55.4 °F42.8 °F63 %30.27 in6.2 miSSW (210°)20.7 mphMostly Cloudy
1:50 PM51.8 °F44.6 °F76 %30.27 in6.2 miSW (220°)17.3 mphMostly Cloudy
2:20 PM53.6 °F44.6 °F72 %30.27 in6.2 miSSW (210°)13.8 mphRainLight Rain Showers
2:50 PM53.6 °F44.6 °F72 %30.24 in6.2 miSSW (210°)16.1 mphMostly Cloudy
3:20 PM55.4 °F42.8 °F63 %30.24 in6.2 miSW (220°)20.7 mphMostly Cloudy
3:50 PM57.2 °F41.0 °F55 %30.21 in6.2 miSSW (200°)19.6 mphMostly Cloudy
4:20 PM57.2 °F39.2 °F51 %30.21 in6.2 miSSW (210°)21.9 mphMostly Cloudy
Hourly data recorded from EGAE, located miles away from Ballykelly, Northern Ireland







STORIES FROM OUR PARTNERS